Location: Helensbirgh
(56.0153°N, 4.7348°W)
Time: 19:26:21
(UTC+01:00)

OTV 5 (USA 277) - Visible Passes

Search period start: 22 April 2019 00:00
Search period end: 02 May 2019 00:00
Orbit: 309 x 326 km, 54.5° (Epoch: 21 April)

Date Brightness Start Highest point End Pass type
(mag) Time Alt. Az. Time Alt. Az. Time Alt. Az.
24 Apr ? 22:10:50 10° SSW 22:12:45 19° SSE 22:12:45 19° SSE visible
25 Apr ? 22:24:58 10° SW 22:27:27 31° SSE 22:28:14 25° ESE visible
25 Apr ? 23:58:50 10° WSW 23:59:11 13° WSW 23:59:11 13° WSW visible
26 Apr ? 22:39:25 10° WSW 22:42:03 45° SSE 22:43:08 28° ESE visible
27 Apr ? 00:13:33 10° W 00:14:02 14° W 00:14:02 14° W visible
27 Apr ? 22:54:01 10° WSW 22:56:43 59° S 22:57:40 33° ESE visible
28 Apr ? 00:28:15 10° W 00:28:34 12° W 00:28:34 12° W visible
28 Apr ? 21:34:40 10° SW 21:37:16 38° SSE 21:39:50 10° E visible
28 Apr ? 23:08:41 10° W 23:11:24 64° S 23:11:59 46° ESE visible
29 Apr ? 21:49:13 10° WSW 21:51:54 53° SSE 21:54:34 10° E visible
29 Apr ? 23:23:24 10° W 23:26:05 57° S 23:26:11 56° S visible
30 Apr ? 22:03:51 10° WSW 22:06:34 63° S 22:09:16 10° E visible
30 Apr ? 23:38:08 10° W 23:40:17 38° SW 23:40:17 38° SW visible
01 May ? 22:18:33 10° W 22:21:15 62° S 22:23:29 14° ESE visible
01 May ? 23:52:54 10° W 23:54:22 22° WSW 23:54:22 22° WSW visible
